Regional Weather Roundup
Issued by NWS

Home | Current Version | Previous Version | Text Only | Print | Product List | Glossary On
Versions: 1 2 3 4 5 6 7 8 9 10 11 12 13 14 15 16 17 18 19 20 21 22 23 24 25 26 27 28 29 30 31 32 33 34 35 36 37 38 39 40 41 42 43 44 45 46 47 48 49 50
000
ASUS46 KPQR 220010
RWROR

OREGON REGIONAL WEATHER ROUNDUP
NATIONAL WEATHER SERVICE PORTLAND OR
500 PM PDT TUE OCT 21 2014

NOTE: "FAIR" INDICATES FEW OR NO CLOUDS BELOW 12,000 FEET WITH
NO SIGNIFICANT WEATHER AND/OR OBSTRUCTIONS TO VISIBILITY.

ORZ001>013-220100-
NORTHWEST OREGON


CITY           SKY/WX    TMP DP  RH WIND       PRES   REMARKS
ASTORIA        CLOUDY    61  53  75 S14G25    29.86F
6HR MIN TEMP:  58; 6HR MAX TEMP:  62; 6HR PCP: TRACE;

NEWPORT        CLOUDY    61  52  72 S10G17    29.96F
PORTLAND       CLOUDY    60  50  69 S10       29.96F
6HR MIN TEMP:  57; 6HR MAX TEMP:  62;

VANCOUVER WA   CLOUDY    60  49  66 SE8       29.95F
6HR MIN TEMP:  57; 6HR MAX TEMP:  61;

SCAPPOOSE      CLOUDY    58  52  80 S5        29.94
6HR MIN TEMP:  56; 6HR MAX TEMP:  60; 6HR PCP:  0.01;

HILLSBORO      CLOUDY    58  52  80 S10       29.93F
6HR MIN TEMP:  56; 6HR MAX TEMP:  60; 6HR PCP: TRACE;

AURORA         CLOUDY    59  50  72 S5        29.96F
6HR MIN TEMP:  57; 6HR MAX TEMP:  61; 6HR PCP: TRACE;

MCMINNVILLE    LGT RAIN  60  51  72 S15G21    29.95F
6HR MIN TEMP:  59; 6HR MAX TEMP:  62; 6HR PCP: TRACE;

SALEM          CLOUDY    61  48  62 S12       29.95F
6HR MIN TEMP:  57; 6HR MAX TEMP:  63; 6HR PCP: TRACE;

CORVALLIS      CLOUDY    61  52  72 S3        29.97F
EUGENE         CLOUDY    62  47  57 S12       29.97F
6HR MIN TEMP:  58; 6HR MAX TEMP:  64;

$$

ORZ021-028-220100-
SOUTHWEST OREGON


CITY           SKY/WX    TMP DP  RH WIND       PRES   REMARKS
NORTH BEND     CLOUDY    63  52  67 S8        29.97F
6HR MIN TEMP:  57; 6HR MAX TEMP:  66;

BROOKINGS      CLOUDY    59  53  80 SE8       30.04F HAZE
ROSEBURG       CLOUDY    64  44  48 S8        29.99F
SEXTON SUMMIT  CLOUDY    46  43  89 S12       30.03F
6HR MIN TEMP:  42; 6HR MAX TEMP:  49;

MEDFORD        PTSUNNY   63  41  44 W5        30.02F
6HR MIN TEMP:  55; 6HR MAX TEMP:  64;

$$

ORZ009-041-220100-
COLUMBIA GORGE


CITY           SKY/WX    TMP DP  RH WIND       PRES   REMARKS
TROUTDALE      CLOUDY    60  50  69 E3        29.96F
6HR MIN TEMP:  58; 6HR MAX TEMP:  63; 6HR PCP:  0.02;

THE DALLES     MOSUNNY   62  46  55 NW8       29.95S
6HR MIN TEMP:  57; 6HR MAX TEMP:  66;

$$

ORZ029>031-042>050-061>064-220100-
EASTERN OREGON


CITY           SKY/WX    TMP DP  RH WIND       PRES   REMARKS
REDMOND        SUNNY     56  35  45 SW13      29.99F
6HR MIN TEMP:  50; 6HR MAX TEMP:  59;

BEND           CLEAR     54  36  50 S15       30.02
KLAMATH FALLS  MOSUNNY   51  37  58 SE7       30.06S
6HR MIN TEMP:  44; 6HR MAX TEMP:  53;

LAKEVIEW       MOSUNNY   48  32  53 S8        30.10S
HERMISTON      CLEAR     64  40  41 W8        29.95F
6HR MIN TEMP:  59; 6HR MAX TEMP:  67;

PENDLETON      CLEAR     62  40  44 W9        29.96F
6HR MIN TEMP:  57; 6HR MAX TEMP:  63;

JOHN DAY       MOCLDY    55  37  51 SW8       30.04S
MEACHAM        PTCLDY    49  38  65 CALM      30.01S
6HR MIN TEMP:  48; 6HR MAX TEMP:  52; 6HR PCP:  0.02;

LA GRANDE      PTCLDY    55  34  44 NE6       30.00S
6HR MIN TEMP:  55; 6HR MAX TEMP:  59;

BAKER CITY     MOCLDY    52  35  52 N5        30.01S
6HR MIN TEMP:  52; 6HR MAX TEMP:  60;

BURNS          CLEAR     53  32  44 S7        30.05F
6HR MIN TEMP:  46; 6HR MAX TEMP:  55;

ROME             N/A     55  26  32 SW6       30.05S
6HR MIN TEMP:  49; 6HR MAX TEMP:  58;

ONTARIO        MOCLDY    63  36  36 S5        30.01S
6HR MIN TEMP:  57; 6HR MAX TEMP:  65; 6HR PCP: TRACE;

$$



USA.gov is the U.S. government's official web portal to all federal, state and local government web resources and services.